Starlink 3930

operational
NORAD ID: 52568 Int'l Des: 2022-051 Owner: SPXS Country: US Constellation: starlink
LEOCIRCULAR

关于 Starlink 3930

正在加载描述...

实时位置

正在加载3D地球...

即将过境

高度历史

Altitude vs Time

uPlot chart will show altitude changes over time

两行轨道根数

1 52568U 22051AM 26036.76488936 .00000183 00000-0 29612-4 0 9990
2 52568 53.2172 262.4377 0001521 89.1903 270.9263 15.08850979206760
Epoch: Feb 5, 2026 • Age: 14 hours

当前状态

高度 559.1 km
速度 7.58 km/s
星下点 -52.65°S, 103.18°W
发射日期 May 13, 2022
运行时间 3.7 years
类型 internet

技术详情

分类 Payload
质量 297.00 kg
干质量 275.00 kg
总质量 297.00 kg
长度 0.20 m
直径 2.80 m
跨度 9.00 m
形状 Box + pan
制造商 SPXS
平台类型 Starlink
阶段状态 In Orbit
所有者/国家 SPXS/US

大型星座

Loading constellations...